UTMN 2 (RS27S)

Last updated on Sun Apr 12 2026 00:03:15 GMT+0000 (Coordinated Universal Time)

1 57203U 23091AP 26101.46949676 .00011595 00000+0 39546-3 0 9993 2 57203 97.5138 167.8346 0006982 322.2122 37.8627 15.30492289154338
UTC large
Height (km)
Speed (km/s)
/
Latitude / Longitude
Inclination (degrees)
Orbital Period (minutes)
Azimuth
Elevation
Range (km)
Doppler Factor

Next 0 passes for location: London (51.5072 / 0.1276)

Sorry there are no passes over London.
UTMN 2 (RS27S)